Flag for China Weather past 2 weeks in Lanchow, Gansu, China

Now
10 °F

Clear.


Feels Like: 10 °F
Forecast: 7 / 28 °F
Wind: 1 mph from North

Location: Lanzhou / Zhongchuan

Current Time: Jan 29, 2015 at 2:31:51 AM

Latest Report: Jan 29, 2015 at 2:00 AM


Visibility: 10 mi

Pressure: 30.24 "Hg

Humidity: 61%

Dew point: 0 °F

Location of LanchowLocation

Historic Weather in Lanchow — Graph

°F

Lanchow temperature yesterday

Maximum temperature yesterday: 27 °F (at 1:00 PM)
Minimum temperature yesterday: 14 °F (at 11:00 PM)
Average temperature yesterday: 20 °F

Past Weeks' High & Low Weather Summary

 TemperatureHumidityPressure
High46 °F (Jan 25, 4:00 PM)86% (Jan 17, 11:00 AM)30.39 "Hg (Jan 17, 11:00 AM)
Low1 °F (Jan 18, 6:00 AM)14% (Jan 21, 5:00 PM)29.71 "Hg (Jan 23, 3:00 PM)
Average22 °F50%30.13 "Hg
* Reported Jan 14 1:00 AM — Jan 29 1:00 AM, Lanchow, Weather by CustomWeather, © 2014

Note: Actual official high and low records may vary slightly from our data, if they occured in-between our weather recording intervals... More about our weather records

Advertising

Lanchow weather history for previous 24 hours

 ConditionsComfort  
Time TempWeatherWind HumidityBarometerVisibility
1:00 AM
Jan 29
12 °FClear.1 mph57%30.24 "Hg10 mi
12:00 AM12 °FClear.3 mph57%30.24 "Hg10 mi
11:00 PM
Jan 28
14 °FPassing clouds.3 mph52%30.24 "HgN/A
10:00 PM16 °FClear.3 mph48%30.24 "Hg10 mi
9:00 PM16 °FPassing clouds.3 mph53%30.21 "HgN/A
8:00 PM18 °FClear.8 mph49%30.18 "Hg10 mi
7:00 PM19 °FPassing clouds.8 mph49%30.12 "HgN/A
6:00 PM21 °FPassing clouds.8 mph45%30.09 "HgN/A
5:00 PM25 °FPassing clouds.10 mph42%30.07 "HgN/A
4:00 PM27 °FPassing clouds.10 mph39%30.04 "HgN/A
3:00 PM27 °FPassing clouds.13 mph43%30.01 "HgN/A
2:00 PM27 °FPassing clouds.10 mph46%30.01 "HgN/A
1:00 PM27 °FPassing clouds.10 mph46%30.01 "HgN/A
12:00 PM25 °FPassing clouds.13 mph54%30.04 "HgN/A
11:00 AM21 °FScattered clouds.13 mph63%30.01 "HgN/A
10:00 AM18 °FLight snow. Partly sunny.6 mph79%30.04 "Hg2 mi
9:00 AM18 °FLight snow. Mostly cloudy.6 mph68%30.01 "Hg4 mi
8:00 AM16 °FLight snow. Mostly cloudy.6 mph79%29.98 "Hg4 mi
7:00 AM18 °FLight snow. Mostly cloudy.3 mph79%29.95 "Hg4 mi
6:00 AM18 °FLight snow. Mostly cloudy.1 mph79%29.95 "Hg4 mi
5:00 AM16 °FLight snow. Mostly cloudy.1 mph79%29.95 "Hg4 mi
4:00 AM18 °FLight snow. Mostly cloudy.6 mph79%29.98 "Hg4 mi
3:00 AM18 °FLight snow. Mostly cloudy.6 mph79%30.01 "Hg3 mi
2:00 AM19 °FLight snow. Mostly cloudy.3 mph73%30.01 "HgN/A
Weather by CustomWeather, © 2014

See weather overviewHow to use our weather pages